TimeEDT,TemperatureF,Dew PointF,Humidity,Sea Level PressureIn,VisibilityMPH,Wind Direction,Wind SpeedMPH,Gust SpeedMPH,PrecipitationIn,Events,Conditions,WindDirDegrees,DateUTC
12:56 AM,44.1,27.0,51,30.04,10.0,NW,8.1,-,N/A,,Clear,310,2013-05-14 04:56:00
1:56 AM,43.0,28.0,56,30.04,10.0,NW,6.9,-,N/A,,Clear,320,2013-05-14 05:56:00
2:56 AM,42.1,28.0,58,30.04,10.0,WNW,8.1,-,N/A,,Clear,300,2013-05-14 06:56:00
3:56 AM,42.1,28.0,58,30.04,10.0,NW,9.2,-,N/A,,Clear,320,2013-05-14 07:56:00
4:56 AM,41.0,28.0,60,30.04,10.0,NNW,10.4,-,N/A,,Clear,330,2013-05-14 08:56:00
5:56 AM,41.0,28.0,60,30.05,10.0,NNW,8.1,-,N/A,,Scattered Clouds,330,2013-05-14 09:56:00
6:56 AM,44.1,28.0,53,30.06,10.0,NNW,10.4,-,N/A,,Partly Cloudy,340,2013-05-14 10:56:00
7:56 AM,46.9,28.0,48,30.07,10.0,NNW,13.8,-,N/A,,Clear,340,2013-05-14 11:56:00
8:56 AM,52.0,28.9,41,30.06,10.0,North,12.7,-,N/A,,Clear,10,2013-05-14 12:56:00
9:56 AM,55.0,28.0,35,30.05,10.0,North,8.1,-,N/A,,Clear,350,2013-05-14 13:56:00
10:56 AM,57.0,26.1,30,30.05,10.0,NNW,8.1,-,N/A,,Mostly Cloudy,330,2013-05-14 14:56:00
11:56 AM,51.1,34.0,52,30.05,10.0,SW,15.0,-,N/A,,Overcast,230,2013-05-14 15:56:00
12:56 PM,52.0,36.0,54,30.05,10.0,SW,13.8,-,N/A,,Overcast,230,2013-05-14 16:56:00
1:56 PM,52.0,35.1,53,30.05,10.0,WSW,11.5,-,N/A,,Overcast,240,2013-05-14 17:56:00
2:56 PM,55.0,34.0,45,30.03,10.0,WSW,17.3,24.2,N/A,,Overcast,240,2013-05-14 18:56:00
3:56 PM,54.0,33.1,45,30.01,10.0,WSW,17.3,26.5,N/A,,Partly Cloudy,240,2013-05-14 19:56:00
4:56 PM,54.0,34.0,47,30.01,10.0,WSW,13.8,23.0,N/A,,Mostly Cloudy,240,2013-05-14 20:56:00
5:56 PM,54.0,28.9,38,30.01,10.0,WSW,10.4,19.6,N/A,,Mostly Cloudy,250,2013-05-14 21:56:00
6:56 PM,53.1,32.0,45,30.01,10.0,WSW,11.5,-,N/A,,Mostly Cloudy,240,2013-05-14 22:56:00
7:56 PM,51.1,37.0,59,30.02,10.0,WSW,6.9,-,N/A,,Clear,250,2013-05-14 23:56:00
8:56 PM,50.0,36.0,59,30.05,10.0,NW,3.5,-,N/A,,Overcast,320,2013-05-15 00:56:00
9:56 PM,50.0,39.0,66,30.07,10.0,WSW,5.8,-,N/A,,Mostly Cloudy,240,2013-05-15 01:56:00
10:56 PM,50.0,39.0,66,30.07,10.0,WSW,6.9,-,N/A,,Partly Cloudy,250,2013-05-15 02:56:00
11:56 PM,48.0,39.9,74,30.09,10.0,WSW,5.8,-,N/A,,Clear,250,2013-05-15 03:56:00